Weather Roundup
Issued by NWS

Home | Current Version | Previous Version | Graphics & Text | Print | Product List | Glossary Off
Versions: 1 2 3 4 5 6 7 8 9 10 11 12 13 14 15 16 17 18 19 20 21 22 23 24 25 26 27 28 29 30 31 32 33 34 35 36 37 38 39 40 41 42 43 44 45 46 47 48 49 50

267
NZUS93 KARX 191710
HRRWXR

CURRENT HOURLY OBSERVATIONS ACROSS
MUCH OF THE UPPER MISSISSIPPI VALLEY
NATIONAL WEATHER SERVICE LA CROSSE WI
1100 AM CST FRI JAN 19 2018


...SOUTHEAST MINNESOTA...


CITY           SKY/WX    TMP DP  RH WIND       PRES   REMARKS
ROCHESTER      FAIR      32  26  78 S18       29.61F WCI  20
ROCHESTER/MAYO FAIR      34  25  67 S10G18    29.62F WCI  26
WINONA         FAIR      34  27  75 SE6       29.65F WCI  29
AUSTIN         NOT AVBL
ALBERT LEA     FAIR      37  25  60 S13       29.60F WCI  29
DODGE CENTER   FAIR      32  27  80 S15       29.59F WCI  22
PRESTON        FAIR      31  24  75 S18       29.65F WCI  19
OWATONNA       FAIR      34  27  75 S16       29.57F WCI  23
FARIBAULT      FAIR      34  27  75 S9G17     29.58F WCI  26
$$

...ELSEWHERE IN MINNESOTA...


CITY           SKY/WX    TMP DP  RH WIND       PRES   REMARKS
MINNEAPOLIS    CLOUDY    35  28  75 CALM      29.56F
INTNL FALLS    CLOUDY    38  29  70 W9G18     29.38R WCI  31
DULUTH         FAIR      34  27  75 SW10      29.45F WCI  26
RED WING       FAIR      36  23  60 SE7       29.60F WCI  30
REDWOOD FALLS  CLOUDY    37  30  75 S8        29.52F WCI  31
MANKATO        FAIR      34  26  72 S12       29.58F WCI  25
WORTHINGTON    CLOUDY    36  28  73 SW21      29.54F WCI  25
FAIRMONT       CLOUDY    35  27  72 S16       29.57F WCI  25
$$

...SOUTHWEST WISCONSIN...


CITY           SKY/WX    TMP DP  RH WIND       PRES   REMARKS
LA CROSSE      FAIR      33  25  72 S12       29.70F WCI  24
PRAIRIE DU CHI FAIR      35  23  59 SW7       29.76S WCI  30
BOSCOBEL       FAIR      37  24  59 SW12      29.75F WCI  29
LONE ROCK      FAIR      35  24  64 SW10      29.76F WCI  27
PLATTEVILLE    FAIR      33  26  75 S15       29.78F WCI  23
FORT MC COY    FAIR      35  25  68 SW7       29.70F WCI  29
CAMP DOUGLAS   CLOUDY    36  25  64 SW7       29.68F WCI  30
MAUSTON-NEW LI FAIR      35  24  65 S5        29.69F WCI  31
VIROQUA        FAIR      32  26  78 SW14      29.71R WCI  22
WIS DELLS      FAIR      33  23  67 SW12G18   29.72S WCI  25
$$

...ELSEWHERE IN WISCONSIN...


CITY           SKY/WX    TMP DP  RH WIND       PRES   REMARKS
MILWAUKEE      PTSUNNY   36  23  59 SW20G28   29.79F WCI  25
MADISON        CLOUDY    33  23  66 SW10G20   29.76F WCI  25
GREEN BAY      FAIR      30  22  72 SW14      29.68F WCI  19
EAU CLAIRE     FAIR      33  25  72 S5        29.61F WCI  29
BLACK RVR FLS  FAIR      36  23  59 SW5       29.66F WCI  32
MEDFORD        FAIR      29  23  78 S12       29.61R WCI  19
WAUSAU         FAIR      29  23  78 S7        29.61F WCI  22
WIS RAPIDS     FAIR      31  21  66 SW10      29.67F WCI  22
MARSHFIELD     FAIR      31  23  72 SW12      29.63F WCI  22
RICE LAKE      FAIR      31  26  79 SE9       29.59F WCI  23
$$

...NORTHEAST IOWA...


CITY           SKY/WX    TMP DP  RH WIND       PRES   REMARKS
WATERLOO       FAIR      38  25  59 SW12      29.73S WCI  30
DUBUQUE        FAIR      33  23  66 SW16      29.76F WCI  23
DECORAH        FAIR      36  27  69 S6        29.71S WCI  31
MASON CITY     CLOUDY    36  27  69 S9        29.66F WCI  29
CHARLES CITY   FAIR      34  30  86 S13       29.70F WCI  25
OELWEIN        FAIR      34  30  86 S15       29.73F WCI  24
$$

...ELSEWHERE IN IOWA...


CITY           SKY/WX    TMP DP  RH WIND       PRES   REMARKS
DES MOINES     CLOUDY    39  25  57 SW16      29.76F WCI  30
IOWA CITY      FAIR      39  23  52 S10       29.84F WCI  32
FORT DODGE     CLOUDY    37  27  67 S17       29.67F WCI  27
MARSHALLTOWN   CLOUDY    38  26  62 S16       29.72F WCI  29
CEDAR RAPIDS   FAIR      37  25  61 SW15      29.77F WCI  28
$$

...NORTHERN ILLINOIS...


CITY           SKY/WX    TMP DP  RH WIND       PRES   REMARKS
CHICAGO-OHARE  PTSUNNY   34  20  56 SW17G24   29.88F WCI  23
CHICAGO-MIDWAY PTSUNNY   36  21  54 SW18      29.90F WCI  26
MOLINE         FAIR      38  23  55 SW14      29.85F WCI  30
ROCKFORD       CLOUDY    34  23  64 S14       29.86F WCI  25
PEORIA         FAIR      38  22  52 SW17      29.94F WCI  28
$$

NOTE: "FAIR" INDICATES FEW OR NO CLOUDS BELOW 12,000 FEET WITH NO
SIGNIFICANT WEATHER AND/OR OBSTRUCTIONS TO VISIBILITY. WIND
SPEEDS ARE IN MILES-PER-HOUR.




USA.gov is the U.S. government's official web portal to all federal, state and local government web resources and services.